Location: Grand Rapids
(42.9630°N, 85.6680°W)
Time: 03:07:50
(UTC-04:00)

Vanguard 3 - Visible Passes

Search period start: 30 May 2024 00:00
Search period end: 09 June 2024 00:00
Orbit: 509 x 3232 km, 33.3° (Epoch: 29 May)

Date Brightness Start Highest point End Pass type
(mag) Time Alt. Az. Time Alt. Az. Time Alt. Az.
30 May 10.7 01:38:38 10° WSW 01:44:19 16° SW 01:44:19 16° SW visible
30 May 9.5 22:05:33 10° WSW 22:13:46 40° SSW 22:25:53 13° SE visible
31 May 10.3 00:18:05 10° WSW 00:27:01 23° SSW 00:30:03 22° SSW visible
31 May 9.9 22:59:30 10° WSW 23:07:53 30° SSW 23:15:51 19° SSE visible
01 Jun 10.8 01:15:50 10° WSW 01:20:02 13° SW 01:20:02 13° SW visible
01 Jun 9.5 21:41:50 10° WSW 21:49:06 35° SSW 22:00:51 10° SE visible
01 Jun 10.4 23:54:34 10° WSW 00:02:03 20° SSW 00:05:54 18° S visible
02 Jun 9.9 22:35:52 10° WSW 22:43:08 26° SSW 22:51:49 14° SSE visible
03 Jun 10.4 23:31:25 10° WSW 23:37:13 16° SSW 23:41:59 13° S visible
04 Jun 10.0 22:12:24 10° WSW 22:18:29 21° SSW 22:27:04 10° SSE visible
05 Jun 10.5 23:09:06 10° SW 23:12:30 12° SSW 23:16:26 10° S visible
06 Jun 10.0 21:49:12 10° WSW 21:53:57 17° SSW 22:00:12 10° SSE visible
